EFTP Weather Reports


time (UTC)temp
C
wind
direction
speed
KPH
gust
KPH
rain 1hr
cm
rain 24hr
cm
rain mn
cm
humidity
%
barometer
mb
20260507082726 8 172 6.4 12.9 0.00 0.00 0.00 23 1016.5
20260507080725 8 199 8.0 20.9 0.00 0.00 0.00 26 1016.6
20260507074725 8 254 6.4 11.3 0.00 0.00 0.00 28 1016.6
20260507072726 7 266 4.8 11.3 0.00 0.00 0.00 31 1016.6
20260507070725 7 261 6.4 11.3 0.00 0.00 0.00 35 1016.6
20260507064725 8 111 4.8 9.7 0.00 0.00 0.00 33 1016.6
20260507062725 7 103 4.8 12.9 0.00 0.00 0.00 34 1016.6
20260507060725 6 126 4.8 8.0 0.00 0.00 0.00 40 1016.5
20260507054725 6 87 8.0 11.3 0.00 0.00 0.00 44 1016.5
20260507052725 5 78 6.4 9.7 0.00 0.00 0.00 47 1016.4
20260507050724 4 23 3.2 6.4 0.00 0.00 0.00 52 1016.6
20260507044725 3 45 3.2 4.8 0.00 0.00 0.00 58 1016.8
20260507042724 1 359 1.6 3.2 0.00 0.00 0.00 69 1016.8
20260507040725 0 80 1.6 3.2 0.00 0.00 0.00 75 1016.9
20260507032726 -2 0.0 1.6 0.00 0.00 0.00 82 1017.0
20260507024724 -3 0.0 1.6 0.00 0.00 0.00 82 1017.1
20260507022725 -4 129 1.6 3.2 0.00 0.00 0.00 89 1017.0
20260507020724 -4 105 3.2 3.2 0.00 0.00 0.00 87 1016.9
20260507014725 -3 0.0 1.6 0.00 0.00 0.00 86 1016.7
20260507012724 -4 127 3.2 4.8 0.00 0.00 0.00 89 1016.6
20260507010724 -3 141 3.2 4.8 0.00 0.00 0.00 84 1016.6
20260507005050 -3 67 3.2 4.8 0.00 0.00 0.00 84 1016.4
20260507002725 -3 0.0 3.2 0.00 0.00 0.00 83 1016.5
20260507000724 -3 0.0 1.6 0.00 0.00 0.00 79 1016.4
20260506234724 -3 88 1.6 1.6 0.00 0.00 0.00 81 1016.2
20260506232724 -2 238 3.2 4.8 0.00 0.00 0.00 73 1016.1
20260506230726 -2 219 1.6 3.2 0.00 0.00 0.00 74 1016.0
20260506224724 -2 114 3.2 3.2 0.00 0.00 0.00 80 1016.0
20260506222724 -2 97 1.6 3.2 0.00 0.00 0.00 78 1015.8
20260506220724 -2 107 1.6 3.2 0.00 0.00 0.00 74 1015.7
20260506214724 -2 115 1.6 3.2 0.00 0.00 0.00 72 1015.5
20260506212724 -1 77 3.2 4.8 0.00 0.00 0.00 72 1015.5
20260506210723 -1 82 3.2 4.8 0.00 0.00 0.00 72 1015.4
20260506204723 -1 119 3.2 3.2 0.00 0.00 0.00 69 1015.3
20260506202723 0 105 1.6 3.2 0.00 0.00 0.00 67 1015.3
20260506200724 1 190 1.6 1.6 0.00 0.00 0.00 53 1015.1
20260506194723 2 278 1.6 3.2 0.00 0.00 0.00 50 1015.0
20260506192723 2 256 4.8 4.8 0.00 0.00 0.00 47 1015.0
20260506190723 3 252 4.8 6.4 0.00 0.00 0.00 43 1014.9
20260506184723 4 285 6.4 9.7 0.00 0.00 0.00 41 1014.7
20260506182724 6 280 8.0 11.3 0.00 0.00 0.00 32 1014.5
20260506180723 6 286 9.7 12.9 0.00 0.00 0.00 30 1014.3
20260506174723 7 270 11.3 14.5 0.00 0.00 0.00 29 1014.1
20260506172722 7 280 12.9 17.7 0.00 0.00 0.00 28 1014.0
20260506170723 7 284 14.5 19.3 0.00 0.00 0.00 26 1013.9
20260506164722 8 286 14.5 20.9 0.00 0.00 0.00 27 1013.7
20260506162723 8 294 14.5 22.5 0.00 0.00 0.00 27 1013.7
20260506154723 8 308 17.7 24.1 0.00 0.00 0.00 27 1013.6
20260506152723 8 289 17.7 27.4 0.00 0.00 0.00 26 1013.5
20260506144722 9 274 20.9 30.6 0.00 0.00 0.00 27 1013.5
20260506142722 9 259 24.1 33.8 0.00 0.00 0.00 26 1013.4
20260506140721 10 254 22.5 32.2 0.00 0.00 0.00 25 1013.3
20260506134722 10 297 20.9 29.0 0.00 0.00 0.00 25 1013.4
20260506132722 9 271 19.3 30.6 0.00 0.00 0.00 25 1013.2
20260506130721 9 288 19.3 29.0 0.00 0.00 0.00 25 1013.2
20260506124721 9 266 20.9 33.8 0.00 0.00 0.00 24 1013.0
20260506122722 10 267 22.5 37.0 0.00 0.00 0.00 31 1013.0
20260506120722 9 282 20.9 30.6 0.00 0.00 0.00 26 1013.0
20260506115048 9 293 24.1 37.0 0.00 0.00 0.00 25 1012.9
20260506112722 8 258 29.0 40.2 0.00 0.00 0.00 27 1012.6
20260506110722 8 259 30.6 41.8 0.00 0.00 0.00 28 1012.6
20260506104723 9 248 27.4 41.8 0.00 0.00 0.00 28 1012.4
20260506102723 8 266 25.7 40.2 0.00 0.00 0.00 29 1012.5
20260506100723 9 268 25.7 35.4 0.00 0.00 0.00 26 1012.4
20260506094723 8 264 30.6 45.1 0.00 0.00 0.00 26 1012.2
20260506092722 9 259 29.0 45.1 0.00 0.00 0.00 28 1012.1
20260506090722 8 263 27.4 35.4 0.00 0.00 0.00 30 1012.1
20260506084723 8 262 24.1 35.4 0.00 0.00 0.00 33 1012.0